OPTICUBE 04

Last updated on Sat Aug 30 2025 00:03:48 GMT+0000 (Coordinated Universal Time)

1 41851U 16067D 25241.27130801 .00003680 00000+0 24545-3 0 9994 2 41851 98.0934 73.2258 0016915 28.3079 331.9063 15.07637749481155
UTC large
Height (km)
Speed (km/s)
/
Latitude / Longitude
Inclination (degrees)
Orbital Period (minutes)
Azimuth
Elevation
Range (km)
Doppler Factor

Next 0 passes for location: London (51.5072 / 0.1276)

Sorry there are no passes over London.